Seattle Boeing, WA

2:54 AM PDT on July 22, 2017 (GMT -0700)
Boeing Field-King County International

Weather History for KBFI - March, 2014

Change the Weather History Date:

Saturday, March 22, 2014

  Actual Average Record
Temperature  
Mean Temperature 44 °F -  
Max Temperature 54 °F 54 °F 68 °F (1979)
Min Temperature 34 °F 39 °F 28 °F (1952)
Degree Days  
Heating Degree Days 22    
Moisture  
Dew Point 31 °F    
Average Humidity 61    
Maximum Humidity 85    
Minimum Humidity 35    
Precipitation  
Precipitation 0.00 in - - ()
Sea Level Pressure  
Sea Level Pressure 30.29 in    
Wind  
Wind Speed 2 mph (ESE)    
Max Wind Speed 6 mph    
Max Gust Speed -    
Visibility 10 miles    
Events      
Averages and records for this station are not official NWS values.
T = Trace of Precipitation, MM = Missing Value Source: NWS Daily Summary

Daily Weather History Graph

Daily Weather History Graph

Search for Another Location

Airport or City:

Trip Planner

Search our weather history database for the weather conditions in past years. The results will help you decide how hot, cold, wet, or windy it might be!

Date:

Astronomy

Mar. 22, 2014 Rise Set
Actual Time 7:07 AM PDT 7:24 PM PDT
Civil Twilight 6:37 AM PDT 7:55 PM PDT
Nautical Twilight 6:00 AM PDT 8:32 PM PDT
Astronomical Twilight 5:23 AM PDT 9:09 PM PDT
Moon 1:09 AM PDT 10:35 AM PDT
Length of Visible Light 13h 18m
Length of Day
12h 17m
Waning Gibbous, 64% of the Moon is Illuminated
Mar 22
Waning Gibbous
Mar 23
Last Quarter
Mar 30
New
Apr 7
First Quarter
Apr 15
Full

Hourly Weather History & Observations

Time (PDT) Temp. Windchill Dew Point Humidity Pressure Visibility Wind Dir Wind Speed Gust Speed Precip Events Conditions
12:53 AM 41.0 °F - 33.1 °F 73% 30.32 in 10.0 mi Calm Calm - N/A   Clear
1:53 AM 39.9 °F - 33.1 °F 77% 30.33 in 10.0 mi Calm Calm - N/A   Clear
2:53 AM 37.9 °F - 32.0 °F 79% 30.33 in 10.0 mi Calm Calm - N/A   Clear
3:53 AM 37.0 °F 33.3 °F 32.0 °F 82% 30.32 in 10.0 mi SE 4.6 mph - N/A   Clear
4:53 AM 36.0 °F - 30.9 °F 82% 30.33 in 10.0 mi Calm Calm - N/A   Clear
5:53 AM 35.1 °F - 30.0 °F 82% 30.33 in 10.0 mi Calm Calm - N/A   Clear
6:53 AM 34.0 °F 31.0 °F 30.0 °F 85% 30.33 in 10.0 mi SE 3.5 mph - N/A   Clear
7:53 AM 35.1 °F 32.2 °F 30.9 °F 85% 30.33 in 10.0 mi SE 3.5 mph - N/A   Mostly Cloudy
8:53 AM 39.0 °F 36.8 °F 32.0 °F 76% 30.33 in 10.0 mi SSE 3.5 mph - N/A   Mostly Cloudy
9:53 AM 42.1 °F 39.2 °F 32.0 °F 67% 30.33 in 10.0 mi SSE 4.6 mph - N/A   Clear
10:53 AM 46.0 °F 44.8 °F 32.0 °F 58% 30.33 in 10.0 mi ESE 3.5 mph - N/A   Mostly Cloudy
11:53 AM 48.9 °F - 28.9 °F 46% 30.32 in 10.0 mi SE 5.8 mph - N/A   Overcast
12:53 PM 52.0 °F - 28.9 °F 41% 30.31 in 10.0 mi Calm Calm - N/A   Mostly Cloudy
1:53 PM 53.1 °F - 28.0 °F 38% 30.29 in 10.0 mi Calm Calm - N/A   Mostly Cloudy
2:53 PM 53.1 °F - 30.9 °F 43% 30.27 in 10.0 mi NNW 4.6 mph - N/A   Overcast
3:53 PM 53.1 °F - 26.1 °F 35% 30.25 in 10.0 mi Calm Calm - N/A   Overcast
4:53 PM 53.1 °F - 27.0 °F 37% 30.24 in 10.0 mi NE 3.5 mph - N/A   Mostly Cloudy
5:53 PM 53.1 °F - 27.0 °F 37% 30.22 in 10.0 mi Variable 3.5 mph - N/A   Partly Cloudy
6:53 PM 52.0 °F - 30.9 °F 45% 30.21 in 10.0 mi NW 3.5 mph - N/A   Overcast
7:53 PM 50.0 °F - 30.9 °F 48% 30.22 in 10.0 mi NW 5.8 mph - N/A   Clear
8:53 PM 48.9 °F - 35.1 °F 59% 30.23 in 10.0 mi NW 5.8 mph - N/A   Clear
9:53 PM 48.0 °F - 36.0 °F 63% 30.24 in 10.0 mi Variable 5.8 mph - N/A   Scattered Clouds
10:53 PM 46.9 °F - 36.0 °F 66% 30.25 in 10.0 mi Calm Calm - N/A   Clear
11:53 PM 46.9 °F - 36.0 °F 66% 30.26 in 10.0 mi NW 4.6 mph - N/A   Overcast